User: anonymous   Login
Location: Unspecified
(0.0000°N, 0.0000°E)
Time: 06:27:21
(UTC+00:00)
Language:

FORMOSAT 3E - Orbit

View from above orbital plane
View from above orbital plane
View from above satellite
View from above satellite

Ground track
Ground track

The orbit data is extracted from the following two-line orbital elements,

1 29051U 06011E   18267.54544923 +.00000082 +00000-0 +48031-4 0  9995
2 29051 072.0051 302.5836 0070378 296.9091 062.4865 14.28696421651930
Epoch (UTC): 24 September 2018 13:05:26
Eccentricity: 0.0070378
inclination: 72.0051°
perigee height: 745 km
apogee height: 846 km
right ascension of ascending node: 302.5836°
argument of perigee: 296.9091°
revolutions per day: 14.28696421
mean anomaly at epoch: 62.4865°
orbit number at epoch: 65193

The dashed part of the orbit path shows where the satellite is in the earth's shadow,  

DLR